Date String (YYYY-MM-DD hh:mm:ss) UTC,Instrument flags,Ambient pressure (hPa),Sample flow (lpm),Bypass flow (lpm),Sample temperature (°C),Ambient temperature (°C),ASC tube jacket temperature (°C),LED temperature (°C),Box temperature (°C),Sample RH (%),Span deviation,Mass concentration (μg/m³),Mass concentration (μg/m³),Mass concentration (μg/m³)
DateTimeUTC,F1_M11,P_M11,Q1_M11,Q2_M11,T1_M11,T2_M11,T3_M11,T4_M11,T5_M11,U1_M11,ZSPAN_M11,X0_M11,X2_M11,X1_M11
2023-02-24 03:00:00,,0826.0,5.01,0.00,22.5,23.1,00.0,31.1,24.5,04.4,0000.0,0006.74,0003.43,0003.18
2023-02-24 03:01:00,,0826.0,5.02,0.00,22.5,22.5,00.0,31.1,24.3,04.4,0000.0,0007.37,0003.45,0003.19
2023-02-24 03:02:00,,0826.0,5.01,0.00,22.5,21.9,00.0,31.1,24.2,04.4,0000.0,0007.37,0003.45,0003.19
2023-02-24 03:03:00,,0826.1,5.01,0.00,22.5,21.4,00.0,31.1,24.0,04.4,0000.0,0007.40,0003.47,0003.20
2023-02-24 03:04:00,,0826.1,5.01,0.00,22.4,21.1,00.0,31.1,24.0,04.4,0000.0,0007.57,0003.52,0003.22
2023-02-24 03:05:00,,0826.1,5.02,0.00,22.4,20.9,00.0,31.1,23.9,04.4,0000.0,0007.74,0003.56,0003.23
2023-02-24 03:06:00,,0826.2,5.00,0.00,22.3,20.7,00.0,31.1,23.8,04.4,0000.0,0008.10,0003.56,0003.23
2023-02-24 03:07:00,,0826.2,5.01,0.00,22.3,20.6,00.0,31.1,23.8,04.4,0000.0,0008.15,0003.58,0003.23
2023-02-24 03:08:00,,0826.1,4.99,0.00,22.2,20.4,00.0,31.1,23.7,04.4,0000.0,0008.00,0003.58,0003.24
2023-02-24 03:09:00,,0826.2,5.01,0.00,22.2,20.7,00.0,31.1,23.8,04.4,0000.0,0008.01,0003.59,0003.25
2023-02-24 03:10:00,,0826.2,4.98,0.00,22.3,21.7,00.0,31.1,24.1,04.4,0000.0,0008.08,0003.61,0003.24
2023-02-24 03:11:00,,0826.2,5.03,0.00,22.4,22.6,00.0,31.1,24.3,04.4,0000.0,0007.84,0003.63,0003.24
2023-02-24 03:12:00,,0826.2,4.93,0.00,22.5,23.1,00.0,31.1,24.5,04.3,0000.0,0008.04,0003.63,0003.24
2023-02-24 03:13:00,,0826.2,5.01,0.00,22.6,22.6,00.0,31.1,24.4,04.3,0000.0,0008.18,0003.62,0003.24
2023-02-24 03:14:00,,0826.2,4.99,0.00,22.5,22.1,00.0,31.2,24.2,04.3,0000.0,0008.46,0003.62,0003.24
2023-02-24 03:15:00,,0826.2,5.02,0.00,22.5,21.6,00.0,31.2,24.1,04.3,0000.0,0008.40,0003.62,0003.24
2023-02-24 03:16:00,,0826.3,5.00,0.00,22.5,21.3,00.0,31.2,24.0,04.3,0000.0,0008.37,0003.61,0003.23
2023-02-24 03:17:00,,0826.3,4.96,0.00,22.4,21.0,00.0,31.2,23.9,04.3,0000.0,0008.19,0003.63,0003.24
2023-02-24 03:18:00,,0826.4,5.00,0.00,22.4,20.8,00.0,31.2,23.9,04.3,0000.0,0008.02,0003.65,0003.25
2023-02-24 03:19:00,,0826.5,5.00,0.00,22.3,20.6,00.0,31.1,23.8,04.3,0000.0,0008.10,0003.65,0003.25
2023-02-24 03:20:00,,0826.5,5.01,0.00,22.3,20.5,00.0,31.1,23.8,04.3,0000.0,0008.10,0003.65,0003.24
2023-02-24 03:21:00,,0826.4,5.00,0.00,22.3,21.0,00.0,31.1,23.9,04.3,0000.0,0008.03,0003.67,0003.24
2023-02-24 03:22:00,,0826.4,5.02,0.00,22.4,22.1,00.0,31.1,24.2,04.3,0000.0,0007.85,0003.65,0003.24
2023-02-24 03:23:00,,0826.5,5.07,0.00,22.5,22.9,00.0,31.1,24.4,04.3,0000.0,0007.26,0003.60,0003.22
2023-02-24 03:24:00,,0826.5,5.00,0.00,22.5,22.5,00.0,31.1,24.3,04.3,0000.0,0006.91,0003.57,0003.21
2023-02-24 03:25:00,,0826.5,4.99,0.00,22.5,22.0,00.0,31.2,24.2,04.3,0000.0,0005.95,0003.54,0003.19
2023-02-24 03:26:00,,0826.5,5.01,0.00,22.5,21.6,00.0,31.2,24.1,04.3,0000.0,0005.87,0003.52,0003.18
2023-02-24 03:27:00,,0826.5,5.00,0.00,22.5,21.3,00.0,31.2,24.0,04.3,0000.0,0006.14,0003.52,0003.18
2023-02-24 03:28:00,,0826.5,4.98,0.00,22.4,21.0,00.0,31.2,24.0,04.3,0000.0,0006.80,0003.48,0003.17
2023-02-24 03:29:00,,0826.5,5.02,0.00,22.4,20.8,00.0,31.2,23.9,04.3,0000.0,0007.40,0003.48,0003.16
2023-02-24 03:30:00,,0826.5,4.99,0.00,22.3,20.7,00.0,31.1,23.8,04.3,0000.0,0007.36,0003.46,0003.14
2023-02-24 03:31:00,,0826.5,4.98,0.00,22.3,20.6,00.0,31.1,23.8,04.3,0000.0,0007.38,0003.47,0003.14
2023-02-24 03:32:00,,0826.6,4.97,0.00,22.3,21.5,00.0,31.1,24.0,04.3,0000.0,0007.28,0003.44,0003.14
2023-02-24 03:33:00,,0826.7,4.96,0.00,22.4,22.6,00.0,31.1,24.3,04.3,0000.0,0007.34,0003.43,0003.13
2023-02-24 03:34:00,,0826.7,5.04,0.00,22.6,23.3,00.0,31.1,24.5,04.3,0000.0,0007.30,0003.44,0003.13
2023-02-24 03:35:00,,0826.7,5.00,0.00,22.6,23.1,00.0,31.2,24.5,04.3,0000.0,0007.35,0003.46,0003.13
2023-02-24 03:36:00,,0826.7,5.00,0.00,22.6,22.5,00.0,31.2,24.4,04.3,0000.0,0007.44,0003.48,0003.13
2023-02-24 03:37:00,,0826.7,5.00,0.00,22.6,22.0,00.0,31.2,24.3,04.3,0000.0,0007.53,0003.52,0003.13
2023-02-24 03:38:00,,0826.7,4.98,0.00,22.6,21.5,00.0,31.2,24.1,04.3,0000.0,0007.43,0003.49,0003.11
2023-02-24 03:39:00,,0826.5,5.01,0.00,22.5,21.2,00.0,31.2,24.0,04.3,0000.0,0006.61,0003.47,0003.12
2023-02-24 03:40:00,,0826.5,5.00,0.00,22.5,20.9,00.0,31.2,23.9,04.3,0000.0,0005.94,0003.47,0003.12
2023-02-24 03:41:00,,0826.5,5.00,0.00,22.4,20.7,00.0,31.2,23.9,04.4,0000.0,0005.82,0003.46,0003.12
2023-02-24 03:42:00,,0826.6,4.98,0.00,22.4,20.6,00.0,31.2,23.8,04.4,0000.0,0006.39,0003.47,0003.14
2023-02-24 03:43:00,,0826.7,5.01,0.00,22.3,20.3,00.0,31.2,23.8,04.4,0000.0,0007.36,0003.48,0003.14
2023-02-24 03:44:00,,0826.7,5.01,0.00,22.3,20.9,00.0,31.1,23.9,04.4,0000.0,0007.24,0003.49,0003.16
2023-02-24 03:45:00,,0826.7,4.98,0.00,22.4,22.1,00.0,31.1,24.2,04.4,0000.0,0007.92,0003.56,0003.19
2023-02-24 03:46:00,,0826.6,4.96,0.00,22.5,22.8,00.0,31.1,24.4,04.4,0000.0,0008.51,0003.60,0003.22
2023-02-24 03:47:00,,0826.5,5.00,0.00,22.6,22.4,00.0,31.2,24.3,04.4,0000.0,0008.67,0003.63,0003.24
2023-02-24 03:48:00,,0826.4,4.98,0.00,22.5,21.8,00.0,31.2,24.2,04.4,0000.0,0008.68,0003.64,0003.26
2023-02-24 03:49:00,,0826.3,4.99,0.00,22.5,21.3,00.0,31.2,24.0,04.4,0000.0,0008.69,0003.68,0003.28
2023-02-24 03:50:00,,0826.3,4.97,0.00,22.4,20.9,00.0,31.2,23.9,04.4,0000.0,0008.76,0003.73,0003.30
2023-02-24 03:51:00,,0826.2,5.01,0.00,22.3,20.5,00.0,31.1,23.7,04.4,0000.0,0008.79,0003.77,0003.32
2023-02-24 03:52:00,,0826.2,5.00,0.00,22.2,20.2,00.0,31.1,23.6,04.4,0000.0,0009.41,0003.82,0003.35
2023-02-24 03:53:00,,0826.2,5.00,0.00,22.2,20.1,00.0,31.1,23.5,04.5,0000.0,0009.33,0003.87,0003.38
2023-02-24 03:54:00,,0826.2,5.02,0.00,22.2,21.2,00.0,31.0,23.9,04.5,0000.0,0008.93,0003.92,0003.42
2023-02-24 03:55:00,,0826.2,5.01,0.00,22.3,22.2,00.0,31.0,24.1,04.4,0000.0,0009.51,0003.96,0003.45
2023-02-24 03:56:00,,0826.4,5.04,0.00,22.4,22.9,00.0,31.1,24.3,04.4,0000.0,0009.48,0003.96,0003.48
2023-02-24 03:57:00,,0826.5,5.01,0.00,22.5,22.7,00.0,31.1,24.3,04.4,0000.0,0009.24,0003.99,0003.50
2023-02-24 03:58:00,,0826.4,5.00,0.00,22.5,22.0,00.0,31.1,24.2,04.4,0000.0,0009.28,0004.03,0003.52
2023-02-24 03:59:00,,0826.2,4.99,0.00,22.4,21.5,00.0,31.1,24.0,04.4,0000.0,0009.49,0004.08,0003.56
